FW4555 Des Moines WA US current weather conditions

sailwx.info

Wind from 046 at 1 knots gusting 3

Air temperature 7.8° C
Dewpoint 6.2° C

Last reported at 2019-Dec-05 14:05 UTC.
Time now 2019-Dec-05 15:02 UTC

Location: N 47°23' W 122°20'.
View on Google Maps.

See reports from other nearby stations

  
Tides and Currents Weather Stations Pressure Air Temp Water Temp Dewpoint Dewpoint Depression Visibility Wind Speed Wind Dir Waves Ship Positions
date/time (UTC)wind fromknots sea level pressurealtimeterstation pressurevisibilityair tempwater tempwave heightnotes
2019-Dec-05 14:05 046 1 gusting 3 7.8
2019-Dec-05 13:55 030 2 gusting 5 7.2
2019-Dec-05 13:50 356 0 gusting 3 7.2
2019-Dec-05 13:45 360 7.2
2019-Dec-05 13:35 011 1 gusting 3 7.2
2019-Dec-05 13:30 032 0 gusting 4 7.2
2019-Dec-05 13:25 347 0 gusting 4 7.2
2019-Dec-05 13:20 019 0 gusting 3 7.2
2019-Dec-05 13:10 027 0 gusting 3 7.2
2019-Dec-05 13:05 020 0 gusting 3 7.2
2019-Dec-05 13:00 347 7.2
2019-Dec-05 12:55 022 1 gusting 4 7.2
2019-Dec-05 12:50 013 0 gusting 5 7.2
2019-Dec-05 12:40 020 0 gusting 5 7.2
2019-Dec-05 12:35 331 0 gusting 5 7.2
2019-Dec-05 12:30 005 1 gusting 4 7.2
2019-Dec-05 12:25 322 1 gusting 4 7.2
2019-Dec-05 12:20 004 2 gusting 4 7.2
2019-Dec-05 12:10 033 0 gusting 3 7.2
2019-Dec-05 12:05 011 0 gusting 3 7.2
2019-Dec-05 12:02 020 0 gusting 2 7.2
2019-Dec-05 11:56 327 0 gusting 3 7.2
2019-Dec-05 11:50 027 0 gusting 3 7.2
2019-Dec-05 11:46 358 0 gusting 2 7.2
2019-Dec-05 11:41 360 0 gusting 2 7.2
2019-Dec-05 11:36 345 0 gusting 2 7.2
2019-Dec-05 11:32 020 7.2
2019-Dec-05 11:25 018 7.2
2019-Dec-05 11:20 039 0 gusting 5 7.2
2019-Dec-05 11:16 038 2 gusting 6 7.2
2019-Dec-05 11:10 284 1 gusting 6 7.2
2019-Dec-05 11:05 318 1 gusting 6 7.2
2019-Dec-05 11:02 010 7.2
2019-Dec-05 10:55 047 7.8
2019-Dec-05 10:50 031 0 gusting 5 7.8
2019-Dec-05 10:45 023 1 gusting 5 7.8
2019-Dec-05 10:40 044 2 gusting 5 7.8
2019-Dec-05 10:35 074 7.8
2019-Dec-05 10:30 004 0 gusting 6 7.8
2019-Dec-05 10:25 338 2 gusting 6 7.8
2019-Dec-05 10:20 036 2 gusting 7 7.8
2019-Dec-05 10:15 026 2 gusting 7 7.8
2019-Dec-05 10:10 033 1 gusting 8 7.8
2019-Dec-05 10:05 011 3 gusting 8 7.8
2019-Dec-05 10:01 042 0 gusting 6 7.8
2019-Dec-05 09:55 048 1 gusting 6 7.8
2019-Dec-05 09:50 070 1 gusting 5 7.8
2019-Dec-05 09:46 049 2 gusting 5 7.8
2019-Dec-05 09:40 027 0 gusting 6 7.8
2019-Dec-05 09:35 307 0 gusting 6 7.8
2019-Dec-05 09:30 342 2 gusting 6 7.8
2019-Dec-05 09:25 040 0 gusting 5 7.8
2019-Dec-05 09:20 027 1 gusting 6 7.8
2019-Dec-05 09:15 331 1 gusting 6 7.8
2019-Dec-05 09:10 020 2 gusting 6 7.8
2019-Dec-05 09:05 010 1 gusting 5 7.8
2019-Dec-05 09:00 025 2 gusting 5 7.8
2019-Dec-05 08:55 051 1 gusting 5 7.8
2019-Dec-05 08:50 052 0 gusting 5 7.8
2019-Dec-05 08:45 338 7.8
2019-Dec-05 08:40 321 1 gusting 5 7.8
2019-Dec-05 08:35 004 1 gusting 6 7.8
2019-Dec-05 08:30 352 2 gusting 5 7.8
2019-Dec-05 08:25 339 1 gusting 4 7.8
2019-Dec-05 08:20 007 1 gusting 4 7.8
2019-Dec-05 08:15 003 0 gusting 4 7.8
2019-Dec-05 08:10 030 0 gusting 3 7.8
2019-Dec-05 08:05 027 0 gusting 3 7.8
2019-Dec-05 07:55 035 1 gusting 5 7.8
2019-Dec-05 07:50 301 1 gusting 4 7.8
2019-Dec-05 07:45 005 1 gusting 5 7.8
2019-Dec-05 07:40 358 0 gusting 3 7.8
2019-Dec-05 07:35 032 1 gusting 6 7.8
2019-Dec-05 07:30 040 2 gusting 6 7.8
2019-Dec-05 07:21 007 1 gusting 6 7.8
2019-Dec-05 07:17 023 3 gusting 6 7.8
2019-Dec-05 07:10 001 1 gusting 4 7.8
2019-Dec-05 07:06 003 1 gusting 4 7.8
2019-Dec-05 07:02 360 2 gusting 4 7.8
2019-Dec-05 06:55 007 1 gusting 4 7.8
2019-Dec-05 06:50 015 0 gusting 5 7.8
2019-Dec-05 06:47 348 1 gusting 5 7.8
2019-Dec-05 06:40 040 1 gusting 5 7.8
2019-Dec-05 06:35 041 1 gusting 4 7.8
2019-Dec-05 06:32 359 1 gusting 6 7.8
2019-Dec-05 06:25 025 2 gusting 6 7.8
2019-Dec-05 06:20 038 1 gusting 6 7.8
2019-Dec-05 06:16 040 2 gusting 6 7.8
2019-Dec-05 06:10 043 0 gusting 6 7.8
2019-Dec-05 06:05 309 2 gusting 6 7.8
2019-Dec-05 06:01 009 2 gusting 6 7.8
2019-Dec-05 05:55 335 2 gusting 6 7.8
2019-Dec-05 05:50 006 1 gusting 6 7.8
2019-Dec-05 05:46 334 2 gusting 6 7.8
2019-Dec-05 05:40 001 0 gusting 4 7.8
2019-Dec-05 05:35 354 1 gusting 3 7.8
2019-Dec-05 05:31 001 0 gusting 5 7.8
2019-Dec-05 05:25 339 1 gusting 6 8.3
2019-Dec-05 05:20 011 1 gusting 6 8.3
2019-Dec-05 05:16 311 1 gusting 6 8.3
2019-Dec-05 05:10 021 4 gusting 6 8.3
2019-Dec-05 05:05 025 1 gusting 3 8.3
2019-Dec-05 05:01 013 1 gusting 5 8.3
2019-Dec-05 04:55 298 1 gusting 5 8.3
2019-Dec-05 04:50 032 1 gusting 4 8.3
2019-Dec-05 04:46 011 1 gusting 6 8.3
2019-Dec-05 04:40 038 1 gusting 6 8.3
2019-Dec-05 04:35 134 1 gusting 5 8.3
2019-Dec-05 04:30 330 0 gusting 4 8.3
2019-Dec-05 04:25 342 0 gusting 4 8.3
2019-Dec-05 04:20 316 1 gusting 6 8.3
2019-Dec-05 04:15 001 2 gusting 6 8.3
2019-Dec-05 04:10 325 0 gusting 3 8.3
2019-Dec-05 04:05 329 0 gusting 4 8.3
2019-Dec-05 04:00 313 0 gusting 4 8.3
2019-Dec-05 03:55 325 8.3
2019-Dec-05 03:40 053 0 gusting 3 8.3
2019-Dec-05 03:35 027 0 gusting 6 8.3
2019-Dec-05 03:25 063 2 gusting 7 8.3
2019-Dec-05 03:20 323 1 gusting 5 8.3
2019-Dec-05 03:10 321 2 gusting 6 8.9
2019-Dec-05 03:05 029 3 gusting 6 8.9
2019-Dec-05 02:55 313 0 gusting 5 8.9
2019-Dec-05 02:50 342 2 gusting 6 8.9
2019-Dec-05 02:45 347 1 gusting 7 8.9
2019-Dec-05 02:35 340 3 gusting 7 8.9
2019-Dec-05 02:30 001 2 gusting 6 8.9
2019-Dec-05 02:25 321 1 gusting 6 9.4
2019-Dec-05 02:20 009 1 gusting 3 9.4
2019-Dec-05 02:10 347 9.4
2019-Dec-05 02:01 321 9.4
2019-Dec-05 01:56 002 9.4
2019-Dec-05 01:50 333 0 gusting 2 9.4
2019-Dec-05 01:46 344 9.4
2019-Dec-05 01:40 359 9.4
2019-Dec-05 01:36 350 9.4
2019-Dec-05 01:31 350 9.4
2019-Dec-05 01:26 028 0 gusting 1 9.4
2019-Dec-05 01:20 341 9.4
2019-Dec-05 01:17 086 9.4
2019-Dec-05 01:10 086 9.4
2019-Dec-05 01:05 086 9.4
2019-Dec-05 01:01 086 9.4
2019-Dec-05 00:55 086 9.4
2019-Dec-05 00:50 085 9.4
2019-Dec-05 00:46 029 9.4
2019-Dec-05 00:40 029 9.4
2019-Dec-05 00:35 029 9.4
2019-Dec-05 00:31 029 9.4
2019-Dec-05 00:25 030 9.4
2019-Dec-05 00:20 018 9.4
2019-Dec-05 00:16 350 9.4
2019-Dec-05 00:10 015 0 gusting 3 9.4
2019-Dec-05 00:05 005 0 gusting 3 9.4
2019-Dec-05 00:01 030 0 gusting 3 9.4
2019-Dec-04 23:55 328 1 gusting 3 9.4
2019-Dec-04 23:50 356 0 gusting 3 9.4
2019-Dec-04 23:46 333 0 gusting 4 9.4
2019-Dec-04 23:40 313 0 gusting 4 9.4
2019-Dec-04 23:35 311 1 gusting 3 9.4
2019-Dec-04 23:31 302 1 gusting 3 9.4
2019-Dec-04 23:25 313 0 gusting 5 9.4
2019-Dec-04 23:20 355 0 gusting 5 9.4
2019-Dec-04 23:15 309 9.4
2019-Dec-04 23:10 325 9.4
2019-Dec-04 23:05 340 9.4
2019-Dec-04 23:00 340 9.4
2019-Dec-04 22:55 335 9.4
2019-Dec-04 22:50 338 9.4
2019-Dec-04 22:45 329 0 gusting 2 9.4
2019-Dec-04 22:40 354 0 gusting 2 9.4
2019-Dec-04 22:35 307 0 gusting 2 9.4
2019-Dec-04 22:30 308 0 gusting 2 9.4
2019-Dec-04 22:25 312 9.4
2019-Dec-04 22:20 312 9.4
2019-Dec-04 22:16 261 9.4
2019-Dec-04 22:10 259 0 gusting 1 9.4
2019-Dec-04 22:05 290 0 gusting 1 9.4
2019-Dec-04 22:00 286 9.4
2019-Dec-04 21:55 284 9.4
2019-Dec-04 21:50 284 9.4
2019-Dec-04 21:46 326 9.4
2019-Dec-04 21:40 314 0 gusting 1 9.4
2019-Dec-04 21:35 253 0 gusting 1 9.4
2019-Dec-04 21:31 257 0 gusting 1 9.4
2019-Dec-04 21:25 239 9.4
2019-Dec-04 21:20 248 0 gusting 1 9.4
2019-Dec-04 21:15 259 0 gusting 1 9.4
2019-Dec-04 21:10 241 0 gusting 1 9.4
2019-Dec-04 21:00 133 9.4
2019-Dec-04 20:55 264 9.4
2019-Dec-04 20:45 266 9.4
2019-Dec-04 20:40 266 9.4
2019-Dec-04 20:35 321 9.4
2019-Dec-04 20:25 311 0 gusting 2 9.4
2019-Dec-04 20:20 285 0 gusting 3 9.4
2019-Dec-04 20:10 240 1 gusting 4 9.4
2019-Dec-04 20:05 249 2 gusting 5 9.4
2019-Dec-04 19:55 265 2 gusting 5 9.4
2019-Dec-04 19:50 264 3 gusting 5 9.4
2019-Dec-04 19:45 247 3 gusting 5 9.4
2019-Dec-04 19:40 279 2 gusting 5 9.4
2019-Dec-04 19:35 266 3 gusting 5 9.4
2019-Dec-04 19:25 274 0 gusting 4 9.4
2019-Dec-04 19:20 268 2 gusting 4 9.4
2019-Dec-04 19:15 260 2 gusting 4 9.4
2019-Dec-04 19:10 274 2 gusting 4 9.4
2019-Dec-04 19:05 245 1 gusting 4 9.4
2019-Dec-04 19:00 269 1 gusting 4 9.4
2019-Dec-04 18:51 280 2 gusting 4 9.4
2019-Dec-04 18:46 239 1 gusting 3 9.4
2019-Dec-04 18:40 278 0 gusting 2 9.4
2019-Dec-04 18:36 269 0 gusting 1 9.4
2019-Dec-04 18:31 283 9.4
2019-Dec-04 18:26 284 9.4
2019-Dec-04 18:20 292 0 gusting 1 9.4
2019-Dec-04 18:16 292 0 gusting 1 9.4
2019-Dec-04 18:10 278 9.4
2019-Dec-04 18:05 266 9.4
2019-Dec-04 18:02 234 9.4
2019-Dec-04 17:55 233 9.4
2019-Dec-04 17:51 234 9.4
2019-Dec-04 17:46 248 9.4
2019-Dec-04 17:40 300 0 gusting 1 9.4
2019-Dec-04 17:35 233 9.4
2019-Dec-04 17:31 246 9.4
2019-Dec-04 17:25 276 9.4
2019-Dec-04 17:20 162 0 gusting 1 9.4
2019-Dec-04 17:17 246 9.4
2019-Dec-04 17:10 135 9.4
2019-Dec-04 17:05 135 9.4
2019-Dec-04 17:01 135 9.4
2019-Dec-04 16:55 135 9.4
2019-Dec-04 16:50 135 9.4
2019-Dec-04 16:47 135 9.4
2019-Dec-04 16:40 136 9.4
2019-Dec-04 16:35 136 9.4
2019-Dec-04 16:31 136 9.4
2019-Dec-04 16:25 136 9.4
2019-Dec-04 16:20 136 9.4
2019-Dec-04 16:16 136 9.4
2019-Dec-04 16:10 136 9.4
2019-Dec-04 16:06 146 9.4
2019-Dec-04 15:55 158 1 gusting 4 9.4
2019-Dec-04 15:50 127 1 gusting 2 9.4
2019-Dec-04 15:46 139 0 gusting 1 9.4
2019-Dec-04 15:40 131 0 gusting 1 8.9
2019-Dec-04 15:35 130 0 gusting 1 8.9
2019-Dec-04 15:30 117 8.9
2019-Dec-04 15:25 125 8.9
2019-Dec-04 15:20 124 8.9
2019-Dec-04 15:16 129 8.9
2019-Dec-04 15:10 129 8.9
2019-Dec-04 15:05 129 8.9
2019-Dec-04 15:01 129 9.4
2019-Dec-04 14:55 112 0 gusting 3 8.9
2019-Dec-04 14:50 122 1 gusting 3 8.9
2019-Dec-04 14:45 142 1 gusting 3 8.9
2019-Dec-04 14:40 126 8.9
2019-Dec-04 14:35 131 2 gusting 6 8.9
2019-Dec-04 14:30 134 3 gusting 6 8.9
2019-Dec-04 14:25 148 2 gusting 6 8.9
2019-Dec-04 14:20 129 1 gusting 5 8.9
2019-Dec-04 14:10 136 1 gusting 3 8.9
2019-Dec-04 14:05 126 1 gusting 4 8.9
2019-Dec-04 13:55 108 1 gusting 4 8.9
2019-Dec-04 13:50 134 1 gusting 3 8.9
2019-Dec-04 13:40 138 1 gusting 4 9.4
2019-Dec-04 13:35 164 1 gusting 3 9.4
2019-Dec-04 13:25 133 1 gusting 4 9.4
2019-Dec-04 13:20 133 1 gusting 3 9.4
2019-Dec-04 13:15 145 1 gusting 4 9.4
2019-Dec-04 13:10 150 2 gusting 4 9.4
2019-Dec-04 13:05 155 2 gusting 4 9.4
2019-Dec-04 12:55 160 2 gusting 5 9.4
2019-Dec-04 12:50 147 2 gusting 7 9.4
2019-Dec-04 12:45 143 3 gusting 7 9.4
2019-Dec-04 12:40 151 4 gusting 7 9.4
2019-Dec-04 12:32 162 3 gusting 6 9.4
2019-Dec-04 12:25 174 4 gusting 6 9.4
2019-Dec-04 12:21 150 1 gusting 6 9.4
2019-Dec-04 12:16 153 3 gusting 7 9.4
2019-Dec-04 12:10 147 4 gusting 7 9.4
2019-Dec-04 12:06 148 4 gusting 6 9.4
2019-Dec-04 12:02 170 1 gusting 6 9.4
2019-Dec-04 11:55 139 3 gusting 6 9.4
2019-Dec-04 11:50 134 5 gusting 6 9.4
2019-Dec-04 11:46 145 2 gusting 5 9.4
2019-Dec-04 11:40 150 2 gusting 5 9.4
2019-Dec-04 11:35 148 1 gusting 4 9.4
2019-Dec-04 11:31 139 1 gusting 4 9.4
2019-Dec-04 11:25 146 1 gusting 3 9.4
2019-Dec-04 11:20 140 1 gusting 4 9.4
2019-Dec-04 11:16 133 2 gusting 4 9.4
2019-Dec-04 11:10 148 2 gusting 4 9.4
2019-Dec-04 11:05 120 1 gusting 4 9.4
2019-Dec-04 11:01 146 1 gusting 4 9.4
2019-Dec-04 10:55 117 1 gusting 5 9.4
2019-Dec-04 10:50 160 2 gusting 5 9.4
2019-Dec-04 10:46 153 2 gusting 4 9.4
2019-Dec-04 10:40 139 1 gusting 5 9.4
2019-Dec-04 10:35 133 2 gusting 4 9.4
2019-Dec-04 10:31 141 1 gusting 5 9.4
2019-Dec-04 10:25 175 2 gusting 6 9.4
2019-Dec-04 10:20 157 4 gusting 6 8.9
2019-Dec-04 10:16 152 1 gusting 3 8.9
2019-Dec-04 10:10 198 0 gusting 3 8.9
2019-Dec-04 10:05 163 0 gusting 3 8.9
2019-Dec-04 10:00 141 1 gusting 2 8.9
2019-Dec-04 09:55 173 0 gusting 3 8.9
2019-Dec-04 09:50 188 0 gusting 3 8.9
2019-Dec-04 09:45 128 1 gusting 3 8.9
2019-Dec-04 09:40 124 1 gusting 3 8.9
2019-Dec-04 09:35 128 1 gusting 2 8.9
2019-Dec-04 09:30 105 8.9
2019-Dec-04 09:25 113 0 gusting 2 8.9
2019-Dec-04 09:20 099 9.4
2019-Dec-04 09:15 131 9.4
2019-Dec-04 09:10 113 1 gusting 2 9.4
2019-Dec-04 09:05 160 1 gusting 2 9.4
2019-Dec-04 08:55 134 9.4
2019-Dec-04 08:50 141 0 gusting 1 9.4
2019-Dec-04 08:40 137 1 gusting 2 9.4
2019-Dec-04 08:35 222 0 gusting 5 9.4
2019-Dec-04 08:30 138 2 gusting 5 9.4
2019-Dec-04 08:25 162 2 gusting 5 9.4
2019-Dec-04 08:20 193 2 gusting 4 9.4
2019-Dec-04 08:15 158 2 gusting 4 9.4
2019-Dec-04 08:10 208 1 gusting 3 9.4
2019-Dec-04 08:05 160 0 gusting 3 9.4
2019-Dec-04 07:55 212 1 gusting 4 9.4
2019-Dec-04 07:50 162 1 gusting 6 9.4
2019-Dec-04 07:45 171 4 gusting 6 9.4
2019-Dec-04 07:36 267 1 gusting 3 9.4
2019-Dec-04 07:31 131 0 gusting 3 9.4
2019-Dec-04 07:25 262 0 gusting 4 9.4
2019-Dec-04 07:20 150 2 gusting 4 9.4
2019-Dec-04 07:18 226 1 gusting 6 9.4
2019-Dec-04 07:10 212 1 gusting 6 10.0
2019-Dec-04 07:05 233 2 gusting 5 10.0
2019-Dec-04 07:01 227 0 gusting 2 10.0
2019-Dec-04 06:55 207 0 gusting 6 10.0
2019-Dec-04 06:50 270 0 gusting 6 10.0
2019-Dec-04 06:47 233 4 gusting 6 10.0
2019-Dec-04 06:40 200 2 gusting 4 10.0
2019-Dec-04 06:35 225 1 gusting 4 10.0
2019-Dec-04 06:32 255 0 gusting 2 10.0
2019-Dec-04 06:25 255 10.0
2019-Dec-04 06:20 212 10.0
2019-Dec-04 06:17 269 10.0
2019-Dec-04 06:10 269 10.0
2019-Dec-04 06:05 269 10.0
2019-Dec-04 06:01 340 9.4
2019-Dec-04 05:55 025 0 gusting 0 10.0
2019-Dec-04 05:50 075 10.0
2019-Dec-04 05:46 077 10.0
2019-Dec-04 05:40 077 10.0
2019-Dec-04 05:35 077 10.0
2019-Dec-04 05:31 089 0 gusting 2 10.0
2019-Dec-04 05:25 103 10.0
2019-Dec-04 05:20 103 0 gusting 1 10.0
2019-Dec-04 05:16 147 0 gusting 0 10.0
2019-Dec-04 05:10 122 0 gusting 0 10.0
2019-Dec-04 05:05 122 10.0
2019-Dec-04 05:01 138 10.0
2019-Dec-04 04:55 148 0 gusting 1 10.0
2019-Dec-04 04:50 153 10.0
2019-Dec-04 04:46 200 0 gusting 2 10.0
2019-Dec-04 04:40 223 0 gusting 3 10.0
2019-Dec-04 04:35 221 1 gusting 3 10.0
2019-Dec-04 04:31 235 1 gusting 3 10.0
2019-Dec-04 04:25 214 0 gusting 1 10.0
2019-Dec-04 04:20 238 10.0
2019-Dec-04 04:16 246 10.0
2019-Dec-04 04:10 129 10.0
2019-Dec-04 04:05 129 10.0
2019-Dec-04 04:00 129 10.0
2019-Dec-04 03:55 154 10.0
2019-Dec-04 03:50 151 10.0
2019-Dec-04 03:45 135 10.0
2019-Dec-04 03:40 135 10.0
2019-Dec-04 03:35 135 0 gusting 1 10.0
2019-Dec-04 03:30 137 0 gusting 1 10.0
2019-Dec-04 03:25 197 10.0
2019-Dec-04 03:20 165 0 gusting 2 10.0
2019-Dec-04 03:15 216 10.0
2019-Dec-04 03:10 158 10.0
2019-Dec-04 03:05 147 0 gusting 3 10.0
2019-Dec-04 02:55 158 0 gusting 4 10.0
2019-Dec-04 02:50 155 1 gusting 4 10.0
2019-Dec-04 02:40 165 1 gusting 4 10.0
2019-Dec-04 02:35 211 1 gusting 4 10.0
2019-Dec-04 02:25 153 2 gusting 4 10.0
2019-Dec-04 02:20 184 1 gusting 3 10.0
2019-Dec-04 02:10 153 0 gusting 1 10.0
2019-Dec-04 02:05 225 10.6
2019-Dec-04 02:00 172 0 gusting 2 10.6
2019-Dec-04 01:55 143 0 gusting 3 10.6
2019-Dec-04 01:50 172 1 gusting 3 10.6
2019-Dec-04 01:45 142 0 gusting 2 10.6
2019-Dec-04 01:40 175 10.6
2019-Dec-04 01:35 169 10.6
2019-Dec-04 01:30 244 0 gusting 2 10.6
2019-Dec-04 01:25 293 0 gusting 2 10.6
2019-Dec-04 01:16 319 10.6
2019-Dec-04 01:10 312 0 gusting 1 11.1
2019-Dec-04 01:05 203 11.1
2019-Dec-04 01:01 176 0 gusting 2 11.1
2019-Dec-04 00:55 203 0 gusting 3 11.1
2019-Dec-04 00:50 147 1 gusting 3 11.1
2019-Dec-04 00:46 218 1 gusting 3 11.1
2019-Dec-04 00:40 153 1 gusting 4 11.1
2019-Dec-04 00:35 139 2 gusting 5 11.1
2019-Dec-04 00:31 189 2 gusting 5 11.1
2019-Dec-04 00:26 172 1 gusting 4 11.1
2019-Dec-04 00:20 150 0 gusting 3 11.1
2019-Dec-04 00:17 152 0 gusting 4 11.1
2019-Dec-04 00:10 134 2 gusting 4 11.1
2019-Dec-04 00:05 167 1 gusting 3 11.1
2019-Dec-04 00:01 140 0 gusting 4 11.1
2019-Dec-03 23:55 148 1 gusting 4 11.1
2019-Dec-03 23:50 192 0 gusting 2 11.1
2019-Dec-03 23:46 131 0 gusting 2 11.1
2019-Dec-03 23:40 207 0 gusting 3 11.1
2019-Dec-03 23:35 175 0 gusting 4 11.1
2019-Dec-03 23:31 195 1 gusting 2 11.1
2019-Dec-03 23:25 166 11.1
2019-Dec-03 23:20 260 11.1
2019-Dec-03 23:16 219 0 gusting 4 11.1
2019-Dec-03 23:10 212 1 gusting 4 11.1
2019-Dec-03 23:05 229 1 gusting 3 11.1
2019-Dec-03 23:02 245 0 gusting 6 11.1
2019-Dec-03 22:55 148 2 gusting 6 11.1
2019-Dec-03 22:50 205 2 gusting 5 11.1
2019-Dec-03 22:46 115 2 gusting 5 11.1
2019-Dec-03 22:40 143 2 gusting 5 11.1
2019-Dec-03 22:35 228 0 gusting 5 11.1
2019-Dec-03 22:30 137 1 gusting 5 11.1
2019-Dec-03 22:25 176 1 gusting 4 11.1
2019-Dec-03 22:20 172 2 gusting 4 11.1
2019-Dec-03 22:15 132 2 gusting 4 11.1
2019-Dec-03 22:10 149 2 gusting 4 11.1
2019-Dec-03 22:00 172 0 gusting 4 11.1
2019-Dec-03 21:55 150 2 gusting 4 11.1
2019-Dec-03 21:50 151 1 gusting 5 11.1
2019-Dec-03 21:40 149 1 gusting 4 10.6
2019-Dec-03 21:35 190 1 gusting 5 10.6
2019-Dec-03 21:30 153 2 gusting 5 10.6
2019-Dec-03 21:25 157 2 gusting 7 10.6
2019-Dec-03 21:20 181 3 gusting 7 10.6
2019-Dec-03 21:10 146 2 gusting 7 10.6
2019-Dec-03 21:05 153 4 gusting 7 10.6
2019-Dec-03 20:55 182 2 gusting 6 10.0
2019-Dec-03 20:50 134 2 gusting 6 10.0
2019-Dec-03 20:46 150 1 gusting 3 10.0
2019-Dec-03 20:41 165 1 gusting 3 10.0
2019-Dec-03 20:35 150 1 gusting 3 10.0
2019-Dec-03 20:31 148 1 gusting 3 10.0
2019-Dec-03 20:25 151 1 gusting 3 10.0
2019-Dec-03 20:20 195 1 gusting 3 10.0
2019-Dec-03 20:16 188 1 gusting 3 10.0
2019-Dec-03 20:10 134 9.4
2019-Dec-03 20:05 176 0 gusting 2 9.4
2019-Dec-03 20:01 152 9.4
2019-Dec-03 19:50 148 0 gusting 2 9.4
2019-Dec-03 19:47 164 0 gusting 1 8.9
2019-Dec-03 19:40 214 8.9
2019-Dec-03 19:35 235 8.9
2019-Dec-03 19:31 231 0 gusting 2 8.9
2019-Dec-03 19:25 233 8.9
2019-Dec-03 19:20 248 8.9
2019-Dec-03 19:16 263 8.9
2019-Dec-03 19:10 264 0 gusting 2 8.9
2019-Dec-03 19:05 244 0 gusting 2 8.9
2019-Dec-03 19:01 223 0 gusting 3 8.9
2019-Dec-03 18:55 217 0 gusting 3 8.9
2019-Dec-03 18:50 169 0 gusting 6 8.9
2019-Dec-03 18:45 159 3 gusting 6 8.9
2019-Dec-03 18:40 146 3 gusting 5 8.3
2019-Dec-03 18:35 127 1 gusting 6 8.3
2019-Dec-03 18:30 121 0 gusting 6 8.3
2019-Dec-03 18:25 216 2 gusting 6 8.3
2019-Dec-03 18:20 254 4 gusting 6 8.3
2019-Dec-03 18:16 271 1 gusting 5 8.3
2019-Dec-03 18:10 234 1 gusting 6 8.3
2019-Dec-03 18:05 284 2 gusting 6 8.3
2019-Dec-03 18:00 265 2 gusting 5 8.3
2019-Dec-03 17:55 245 2 gusting 5 8.3
2019-Dec-03 17:50 220 1 gusting 5 8.3
2019-Dec-03 17:45 275 2 gusting 5 8.9
2019-Dec-03 17:40 239 1 gusting 3 8.9
2019-Dec-03 17:35 243 1 gusting 3 8.9
2019-Dec-03 17:30 298 8.9
2019-Dec-03 17:25 198 8.3
2019-Dec-03 17:20 196 0 gusting 1 8.3
2019-Dec-03 17:10 204 0 gusting 2 8.3
2019-Dec-03 17:05 161 1 gusting 2 8.3
2019-Dec-03 17:00 184 0 gusting 3 8.3
2019-Dec-03 16:55 205 0 gusting 3 8.3
2019-Dec-03 16:50 148 0 gusting 3 8.3
2019-Dec-03 16:40 136 2 gusting 4 7.8
2019-Dec-03 16:35 164 0 gusting 3 7.8
2019-Dec-03 16:30 165 1 gusting 3 7.8
2019-Dec-03 16:25 128 0 gusting 2 7.8
2019-Dec-03 16:20 098 0 gusting 1 7.8
2019-Dec-03 16:15 127 7.8
2019-Dec-03 16:10 099 0 gusting 2 7.8
2019-Dec-03 16:05 115 0 gusting 3 7.8
2019-Dec-03 16:00 142 1 gusting 3 7.8
2019-Dec-03 15:55 136 0 gusting 2 7.8
2019-Dec-03 15:50 155 0 gusting 3 7.8
2019-Dec-03 15:45 155 1 gusting 3 7.8
2019-Dec-03 15:40 124 0 gusting 3 7.8
2019-Dec-03 15:35 115 7.8
2019-Dec-03 15:26 137 3 gusting 6 7.8
2019-Dec-03 15:21 167 3 gusting 5 7.8
2019-Dec-03 15:16 140 3 gusting 5 7.8
2019-Dec-03 15:10 157 2 gusting 5 7.8
2019-Dec-03 15:06 179 2 gusting 5 7.8
2019-Dec-03 15:02 152 2 gusting 5 7.8